World > North America > United States > Iowa

Hourly Greene, IA Regional Weather

Feedback E-mail the Weather

Quick WX

Greene, IA Weather Maps

°F °C°F °C
Greene Weather Map
UTC Time: 6/29/2022, 01:42
Your Time:

Greene, IA Regional Weather

Expires:202206290200;;358463
ASUS43 KDMX 290106
RWRIA 

WEATHER ROUNDUP FOR IOWA
NATIONAL WEATHER SERVICE DES MOINES IA
800 PM CDT TUE JUN 28 2022

NOTE: "FAIR" INDICATES FEW OR NO CLOUDS BELOW 12,000 FEET WITH NO
SIGNIFICANT WEATHER AND/OR OBSTRUCTIONS TO VISIBILITY.

* - THESE STATIONS ARE NOT NWS STATIONS...THUS NOT UNDER NWS
QUALITY CONTROL.  THEY ALSO DO NOT REPORT WEATHER SUCH 
AS PRECIPITATION OR FOG.  


IAZ007>011-017>019-026>030-037>042-050>054-066-290200-
   NORTHEAST IOWA
  
CITY           SKY/WX    TMP DP  RH WIND       PRES   REMARKS
CEDAR RAPIDS   CLEAR     76  58  53 S8        30.08S                  
CHARLES CITY * PTCLDY    79  59  50 SW13      30.01S HX  80           
CLINTON *      CLEAR     75  59  57 SW9       30.10F                  
DECORAH *      RAIN      63  63 100 E10G35    30.04R VSB 1            
DUBUQUE        CLEAR     76  56  49 S9        30.08F                  
MONTICELLO *     N/A    N/A N/A N/A MISG        N/A                   
OELWEIN *      CLEAR     77  57  50 S14G20    30.03F                  
WATERLOO       CLEAR     80  57  45 S13       30.01F HX  80           
$$
 

SKY/WX - Weather  TMP - Temperature  DP - Dew Point  RH - Humidity
WIND - Wind Direction/Speed PRES - Barometric Pressure VSB - Visibility
WCI - Wind Chill Index E13G22 Wind - East Wind 13 mph/Gusts of 22 mph

Trending Headlines

Greene Radar Loop



Greene Quick Facts


National Two Day Weather Forecast


E-mail the Greene Weather Forecast

Voice your opinion or tell us about page issues...